SL-14 DEB

Satellite information

Favourite Embed

Satellite Type and Status

DEBRISIN ORBIT

Key statistics

Satellite SL-14 DEB at a glance.

Uptime

14240

Days in orbit

Revolutions

≈ 14.1

Per day

Orbit

LEO

Low Earth Orbit

Inclination

82.5

Latest

Satellite identification and parameters

Extended collection of information and parameters for SL-14 DEB.

Object identification

Identified? True

Debris? True

Object name: SL-14 DEB

International designator: 1986-101H

Object number (NORAD): 17273

Object ID (CCSDS): 17273

Country: COMMONWEALTH OF INDEPENDENT STATES (CIS)

Current information (Y/N): Y

RCS size: SMALL

Orbital parameters

Period: 101.963 minutes

Inclination: 82.5419 deg

SMA: 7229.711 km

Apoapsis: 867.544 km

Periapsis: 835.607 km

RAAN: 114.6397 deg

Eccentricy: 0.0022087

Argument of periapsis: 35.4374 deg

Mean anomaly: 125.5789 deg

Mean motion: 14.12281886 rev/day

Mean motion (dot): 0.00002129 rev/day2

B* drag term: 0.0011468 1/REarth

Two-line elements (TLE)

Creation date: Dec. 12, 2025, 7:16 a.m.

Reference frame: TEME

Reference center: EARTH

Epoch: Dec. 11, 2025, 8:26 p.m. UTC

TLE line 0: 0 SL-14 DEB

TLE line 1: 1 17273U 86101H 25345.85143115 .00002129 00000-0 11468-2 0 9999

TLE line 2: 2 17273 82.5419 114.6397 0022087 35.4374 125.5789 14.12281886993163

Live tracking on map

Real-time ground track for satellite SL-14 DEB.

In-orbit conjunctions

A list of the most updated potential collisions computed for object SL-14 DEB.

Target Orbit TCA Probability of collision Miss distance Type
CZ-6A DEB LEO 2025-01-18 00:26:42 0.0007610443 628.0 (m) DEBRIS
FENGYUN 1C DEB SSO 2024-09-28 07:43:55 0.000145371 143.0 (m) DEBRIS
FENGYUN 1C DEB SSO 2024-09-19 08:21:04 0.0003741962 64.0 (m) DEBRIS
FENGYUN 1C DEB SSO 2024-07-13 12:23:24 0.0003877845 47.0 (m) DEBRIS

Associated space launch

Ionospheric research satellite

SL-14 DEB was lifted into orbit during the mission ‘Tsiklon-3 | Ionozond-E’, on board a Tsiklon-3 space rocket.

The launch took place on Dec. 18, 1986, 8 a.m. from 32/2.

For more information about the launch, click the button.

Launch to space Tsiklon-3 | Ionozond-E
Tsiklon-3 | Ionozond-E

Agency: N/A

Status: Launch Successful

Launch date: Dec. 18, 1986, 8 a.m. UTC

Rocket: Tsiklon-3

Launch pad: 32/2

Location: Plesetsk Cosmodrome, Russian Federation

...

Latest news about this satellite

There are no fresh news available about this satellite. Check back as we update our databases every day.


Newsletter sign-up

Weekly statistics, charts and insights to help you stay on top of the space industry.